Somerville, NJ

8:50 PM EDT on July 25, 2017 (GMT -0400)
Somerset

Weather History for KSMQ - June, 2014

Change the Weather History Date:

Wednesday, June 18, 2014

  Actual Average Record
Temperature  
Mean Temperature 82 °F -  
Max Temperature 91 °F 80 °F 98 °F (1957)
Min Temperature 71 °F 58 °F 41 °F (1950)
Cooling Degree Days 16    
Growing Degree Days 32 (Base 50)    
Moisture  
Dew Point 64 °F    
Average Humidity 57    
Maximum Humidity 84    
Minimum Humidity 32    
Precipitation  
Precipitation 0.00 in - - ()
Sea Level Pressure  
Sea Level Pressure 29.88 in    
Wind  
Wind Speed 6 mph (NW)    
Max Wind Speed 20 mph    
Max Gust Speed 26 mph    
Visibility 10 miles    
Events      
Averages and records for this station are not official NWS values.
T = Trace of Precipitation, MM = Missing Value Source: NWS Daily Summary

Daily Weather History Graph

Daily Weather History Graph

Search for Another Location

Airport or City:

Trip Planner

Search our weather history database for the weather conditions in past years. The results will help you decide how hot, cold, wet, or windy it might be!

Date:

Astronomy

Jun. 18, 2014 Rise Set
Actual Time 5:27 AM EDT 8:32 PM EDT
Civil Twilight 4:54 AM EDT 9:05 PM EDT
Nautical Twilight 4:11 AM EDT 9:48 PM EDT
Astronomical Twilight 3:21 AM EDT 10:38 PM EDT
Moon No Moon Rise 11:49 AM EDT (6/18)
Length of Visible Light 16h 11m
Length of Day
15h 04m
Waning Gibbous, 63% of the Moon is Illuminated
Jun 18
Waning Gibbous
Jun 19
Last Quarter
Jun 27
New
Jul 5
First Quarter
Jul 12
Full

Hourly Weather History & Observations

Time (EDT) Temp. Heat Index Dew Point Humidity Pressure Visibility Wind Dir Wind Speed Gust Speed Precip Events Conditions
12:53 AM 73.9 °F - 66.9 °F 79% 29.87 in 10.0 mi South 3.5 mph - N/A   Clear
1:53 AM 75.9 °F - 68.0 °F 76% 29.86 in 10.0 mi South 3.5 mph - N/A   Clear
2:53 AM 75.9 °F - 69.1 °F 79% 29.84 in 9.0 mi South 4.6 mph - N/A   Clear
3:53 AM 75.9 °F - 69.1 °F 79% 29.82 in 9.0 mi Variable 3.5 mph - N/A   Clear
4:53 AM 79.0 °F - 64.9 °F 62% 29.82 in 10.0 mi Variable 4.6 mph - N/A   Clear
5:53 AM 80.6 °F 81.1 °F 59.0 °F 48% 29.83 in 10.0 mi WNW 9.2 mph 18.4 mph N/A   Clear
6:53 AM 78.1 °F - 61.0 °F 56% 29.84 in 10.0 mi WNW 8.1 mph - N/A   Clear
7:53 AM 80.1 °F 81.7 °F 64.0 °F 58% 29.86 in 10.0 mi West 6.9 mph - N/A   Clear
8:53 AM 82.0 °F 83.4 °F 64.0 °F 54% 29.87 in 10.0 mi NW 10.4 mph 16.1 mph N/A   Clear
9:53 AM 82.9 °F 84.4 °F 64.0 °F 53% 29.87 in 10.0 mi NW 11.5 mph - N/A   Clear
10:53 AM 84.0 °F 85.4 °F 64.0 °F 51% 29.87 in 10.0 mi NNW 19.6 mph 26.5 mph N/A   Clear
11:53 AM 87.1 °F 87.8 °F 63.0 °F 44% 29.89 in 10.0 mi WNW 12.7 mph 21.9 mph N/A   Clear
12:53 PM 89.1 °F 89.3 °F 62.1 °F 40% 29.91 in 10.0 mi NW 10.4 mph 18.4 mph N/A   Clear
1:53 PM 91.0 °F 90.5 °F 60.1 °F 35% 29.91 in 10.0 mi WNW 8.1 mph 21.9 mph N/A   Clear
2:53 PM 91.0 °F 89.7 °F 57.0 °F 32% 29.87 in 10.0 mi NNW 9.2 mph - N/A   Clear
3:53 PM 90.0 °F 88.8 °F 57.9 °F 34% 29.90 in 10.0 mi Variable 6.9 mph - N/A   Clear
4:53 PM 91.0 °F 90.5 °F 60.1 °F 35% 29.90 in 10.0 mi NNW 8.1 mph - N/A   Clear
5:53 PM 91.9 °F 91.8 °F 61.0 °F 35% 29.90 in 10.0 mi North 5.8 mph - N/A   Scattered Clouds
6:53 PM 90.0 °F 90.0 °F 61.0 °F 38% 29.90 in 10.0 mi North 3.5 mph - N/A   Clear
7:53 PM 81.0 °F 83.0 °F 66.0 °F 60% 29.92 in 10.0 mi Calm Calm - N/A   Clear
8:53 PM 78.1 °F - 66.9 °F 68% 29.93 in 10.0 mi Calm Calm - N/A   Clear
9:53 PM 75.0 °F - 66.9 °F 76% 29.94 in 10.0 mi Calm Calm - N/A   Clear
10:53 PM 72.0 °F - 66.9 °F 84% 29.96 in 10.0 mi NW 3.5 mph - N/A   Clear
11:53 PM 71.1 °F - 66.0 °F 84% 29.95 in 10.0 mi Calm Calm - N/A   Clear